sat.trackr.live / text

‹ back to catalog

STARLINK-34394

NORAD 64669 · 2025-139F

PAYLOAD ACTIVE UNKNOWN

§ Identity

Operator
Country
US
Launch date
2025-06-28
Launch site
AFETR
Launch vehicle
Mass (kg)
RCS (m²)

Purposes: comms

External: N2YO · Heavens-Above · Gunter

§ Orbital elements

Epoch: 2026-09-20T09:12:41.862240Z

Period
93.85 min
Inclination
53.1594°
Eccentricity
0.0001416
Mean motion
15.34423309 rev/d
Perigee alt
461.7 km
Apogee alt
463.6 km
Semi-major
6,840.8 km
B*
4.4062e-4
RAAN
298.3818°
Arg perigee
96.0732°
Mean anomaly
264.0432°
Rev number
7,015

§ Raw data

STARLINK-343941 64669U 25139F   26263.38381785  .00014551  00000+0  44062-3 0  99972 64669  53.1594 298.3818 0001416  96.0732 264.0432 15.34423309 70156

JSON: /api/v1/satellites/64669 · /tle

For live sub-satellite position, see the globe view (requires WebGL).

§ Visibility from observer

Set your observer location to see the next 7 days of passes ≥ 10°. The values pass through the URL so the page stays shareable.

No JS? Fill the form by hand. The geolocation button needs JavaScript.